Location: Olsztyn
(53.7767°N, 20.4765°E)
Time: 18:58:30
(UTC+02:00)

A-11 Canister half - Pass Details

Date: 26 January 2022
Orbit: 1513 x 1686 km, 47.2° (Epoch: 24 May)

Event Time Altitude Azimuth Distance (km) Brightness Sun altitude
Rises 17:54:19 0° 247° (WSW) 4,742 13.2 -15.4°
Reaches altitude 10° 17:57:29 10° 243° (WSW) 3,737 12.2 -15.9°
Maximum altitude 18:06:33 56° 169° (S) 1,772 9.3 -17.2°
Enters shadow 18:12:32 23° 101° (ESE) 2,800 9.8 -18.1°
